Stevensville, MD

8:44 PM EDT on May 26, 2017 (GMT -0400)
Stevensville

Weather History for KW29 - September, 2013

Change the Weather History Date:

Monday, September 2, 2013

  Actual Average (KESN) Record (KESN)
Temperature  
Mean Temperature 80 °F -  
Max Temperature 86 °F 84 °F 95 °F (1953)
Min Temperature 73 °F 62 °F 48 °F (1949)
Cooling Degree Days 14    
Growing Degree Days 30 (Base 50)    
Moisture  
Dew Point 72 °F    
Average Humidity 80    
Maximum Humidity 100    
Minimum Humidity 58    
Precipitation  
Precipitation 0.00 in - - ()
Sea Level Pressure  
Sea Level Pressure 29.77 in    
Wind  
Wind Speed 5 mph (SSW)    
Max Wind Speed 10 mph    
Max Gust Speed 16 mph    
Visibility 10 miles    
Events Rain , Thunderstorm    
Averages and records for this station are not official NWS values.
T = Trace of Precipitation, MM = Missing Value Source: NWS Daily Summary

Daily Weather History Graph

Daily Weather History Graph

Search for Another Location

Airport or City:

Trip Planner

Search our weather history database for the weather conditions in past years. The results will help you decide how hot, cold, wet, or windy it might be!

Date:

Astronomy

Sep. 02, 2013 Rise Set
Actual Time 6:35 AM EDT 7:33 PM EDT
Civil Twilight 6:07 AM EDT 8:01 PM EDT
Nautical Twilight 5:35 AM EDT 8:33 PM EDT
Astronomical Twilight 5:01 AM EDT 9:06 PM EDT
Moon 3:51 AM EDT (9/2) 5:45 PM EDT (9/2)
Length of Visible Light 13h 53m
Length of Day
12h 58m
Waning Crescent, 8% of the Moon is Illuminated
Sep 2
Waning Crescent
Sep 5
New
Sep 12
First Quarter
Sep 19
Full
Sep 26
Last Quarter

Hourly Weather History & Observations

Time (EDT) Temp. Heat Index Dew Point Humidity Pressure Visibility Wind Dir Wind Speed Gust Speed Precip Events Conditions
12:01 AM 78.8 °F - 75.2 °F 89% 29.78 in 10.0 mi SSE 5.8 mph - N/A   Clear
12:21 AM 78.8 °F - 77.0 °F 94% 29.79 in 10.0 mi SSE 4.6 mph - N/A   Clear
12:41 AM 78.8 °F - 77.0 °F 94% 29.79 in 10.0 mi SSE 4.6 mph - N/A   Clear
1:01 AM 78.8 °F - 77.0 °F 94% 29.78 in 10.0 mi South 4.6 mph - N/A   Clear
1:21 AM 78.8 °F - 75.2 °F 89% 29.78 in 10.0 mi SSW 5.8 mph - N/A   Scattered Clouds
1:41 AM 78.8 °F - 75.2 °F 89% 29.78 in 10.0 mi SW 6.9 mph - N/A Thunderstorm Scattered Clouds
2:01 AM 78.8 °F - 71.6 °F 78% 29.78 in 10.0 mi WSW 9.2 mph - N/A Thunderstorm Mostly Cloudy
2:21 AM 77.0 °F - 68.0 °F 74% 29.79 in 7.0 mi SSE 6.9 mph 16.1 mph N/A Rain , Thunderstorm Heavy Thunderstorms and Rain
2:41 AM 75.2 °F - 73.4 °F 94% 29.78 in 10.0 mi West 5.8 mph - N/A Rain Light Rain
3:01 AM 75.2 °F - 73.4 °F 94% 29.78 in 10.0 mi West 5.8 mph - N/A Rain Light Rain
3:22 AM 73.4 °F - 71.6 °F 94% 29.77 in 10.0 mi Calm Calm - N/A   Light Drizzle
3:42 AM 73.4 °F - 71.6 °F 94% 29.76 in 10.0 mi Calm Calm - N/A   Scattered Clouds
4:02 AM 73.4 °F - 73.4 °F 100% 29.76 in 10.0 mi Calm Calm - N/A   Clear
4:22 AM 73.4 °F - 73.4 °F 100% 29.76 in 10.0 mi Calm Calm - N/A   Clear
4:42 AM 73.4 °F - 73.4 °F 100% 29.76 in 10.0 mi SSW 4.6 mph - N/A   Clear
5:02 AM 73.4 °F - 73.4 °F 100% 29.77 in 10.0 mi Calm Calm - N/A   Scattered Clouds
5:22 AM 73.4 °F - 73.4 °F 100% 29.77 in 10.0 mi SW 4.6 mph - N/A   Mostly Cloudy
5:42 AM 73.4 °F - 71.6 °F 94% 29.77 in 10.0 mi SSW 3.5 mph - N/A   Overcast
6:02 AM 73.4 °F - 73.4 °F 100% 29.77 in 10.0 mi Calm Calm - N/A   Scattered Clouds
6:22 AM 73.4 °F - 73.4 °F 100% 29.78 in 10.0 mi Calm Calm - N/A   Clear
6:42 AM 73.4 °F - 73.4 °F 100% 29.78 in 10.0 mi Calm Calm - N/A   Clear
7:02 AM 73.4 °F - 71.6 °F 94% 29.78 in 10.0 mi Calm Calm - N/A   Clear
7:22 AM 73.4 °F - 71.6 °F 94% 29.79 in 10.0 mi SW 4.6 mph - N/A   Clear
7:42 AM 73.4 °F - 71.6 °F 94% 29.80 in 10.0 mi WSW 4.6 mph - N/A   Clear
8:02 AM 73.4 °F - 71.6 °F 94% 29.80 in 10.0 mi West 4.6 mph - N/A   Scattered Clouds
8:22 AM 73.4 °F - 71.6 °F 94% 29.80 in 10.0 mi WSW 6.9 mph - N/A   Scattered Clouds
8:42 AM 73.4 °F - 71.6 °F 94% 29.79 in 10.0 mi West 4.6 mph - N/A   Scattered Clouds
9:02 AM 73.4 °F - 71.6 °F 94% 29.80 in 10.0 mi WSW 4.6 mph - N/A   Scattered Clouds
9:22 AM 75.2 °F - 71.6 °F 89% 29.80 in 10.0 mi WSW 3.5 mph - N/A   Scattered Clouds
9:42 AM 75.2 °F - 71.6 °F 89% 29.80 in 10.0 mi WSW 4.6 mph - N/A   Scattered Clouds
10:02 AM 77.0 °F - 71.6 °F 83% 29.81 in 10.0 mi SW 3.5 mph - N/A   Scattered Clouds
10:22 AM 77.0 °F - 71.6 °F 83% 29.81 in 10.0 mi WSW 5.8 mph - N/A   Mostly Cloudy
10:42 AM 78.8 °F - 71.6 °F 78% 29.80 in 10.0 mi SW 6.9 mph - N/A   Scattered Clouds
11:02 AM 78.8 °F - 71.6 °F 78% 29.80 in 10.0 mi SW 5.8 mph - N/A   Mostly Cloudy
11:22 AM 80.6 °F 84.6 °F 71.6 °F 74% 29.81 in 10.0 mi WSW 9.2 mph - N/A   Scattered Clouds
11:42 AM 80.6 °F 84.6 °F 71.6 °F 74% 29.81 in 10.0 mi SW 5.8 mph - N/A   Scattered Clouds
12:03 PM 80.6 °F 84.6 °F 71.6 °F 74% 29.80 in 10.0 mi SSW 5.8 mph - N/A   Clear
12:23 PM 80.6 °F 84.6 °F 71.6 °F 74% 29.79 in 10.0 mi SW 5.8 mph - N/A   Clear
12:43 PM 82.4 °F 86.3 °F 69.8 °F 66% 29.79 in 10.0 mi SSW 3.5 mph - N/A   Clear
1:03 PM 82.4 °F 86.3 °F 69.8 °F 66% 29.79 in 10.0 mi West 6.9 mph - N/A   Clear
1:23 PM 84.2 °F 87.3 °F 68.0 °F 58% 29.78 in 10.0 mi West 5.8 mph - N/A   Clear
1:43 PM 84.2 °F 88.4 °F 69.8 °F 62% 29.78 in 10.0 mi West 3.5 mph - N/A   Clear
2:03 PM 86.0 °F 90.4 °F 69.8 °F 58% 29.77 in 10.0 mi SW 4.6 mph - N/A   Scattered Clouds
2:23 PM 86.0 °F 91.8 °F 71.6 °F 62% 29.77 in 10.0 mi SSE 6.9 mph - N/A   Scattered Clouds
2:43 PM 86.0 °F 91.8 °F 71.6 °F 62% 29.76 in 10.0 mi SSE 9.2 mph - N/A   Clear
3:03 PM 84.2 °F 89.6 °F 71.6 °F 66% 29.75 in 10.0 mi SSE 9.2 mph - N/A   Clear
3:23 PM 86.0 °F 91.8 °F 71.6 °F 62% 29.75 in 10.0 mi SSE 9.2 mph - N/A   Clear
3:43 PM 86.0 °F 91.8 °F 71.6 °F 62% 29.74 in 10.0 mi South 8.1 mph - N/A   Clear
4:03 PM 86.0 °F 90.4 °F 69.8 °F 58% 29.74 in 10.0 mi SSE 10.4 mph - N/A   Clear
4:23 PM 86.0 °F 90.4 °F 69.8 °F 58% 29.74 in 10.0 mi SSE 10.4 mph - N/A   Clear
4:43 PM 86.0 °F 90.4 °F 69.8 °F 58% 29.73 in 10.0 mi South 9.2 mph - N/A   Clear
5:03 PM 86.0 °F 91.8 °F 71.6 °F 62% 29.74 in 10.0 mi South 9.2 mph - N/A   Clear
5:23 PM 84.2 °F 89.6 °F 71.6 °F 66% 29.73 in 10.0 mi SSE 6.9 mph - N/A   Clear
5:43 PM 86.0 °F 91.8 °F 71.6 °F 62% 29.73 in 10.0 mi South 9.2 mph - N/A   Clear
6:03 PM 86.0 °F 91.8 °F 71.6 °F 62% 29.73 in 10.0 mi South 8.1 mph - N/A   Clear
6:23 PM 84.2 °F 89.6 °F 71.6 °F 66% 29.73 in 10.0 mi South 8.1 mph - N/A   Clear
6:43 PM 84.2 °F 89.6 °F 71.6 °F 66% 29.73 in 10.0 mi South 5.8 mph - N/A   Clear
7:03 PM 82.4 °F 87.2 °F 71.6 °F 70% 29.74 in 10.0 mi South 4.6 mph - N/A   Clear
7:23 PM 82.4 °F 87.2 °F 71.6 °F 70% 29.74 in 10.0 mi South 4.6 mph - N/A   Clear
7:43 PM 82.4 °F 87.2 °F 71.6 °F 70% 29.74 in 10.0 mi South 5.8 mph - N/A   Clear
8:03 PM 80.6 °F 84.6 °F 71.6 °F 74% 29.74 in 10.0 mi SSW 4.6 mph - N/A   Clear
8:23 PM 80.6 °F 84.6 °F 71.6 °F 74% 29.74 in 10.0 mi SSW 4.6 mph - N/A   Clear
8:43 PM 80.6 °F 84.6 °F 71.6 °F 74% 29.74 in 10.0 mi SW 4.6 mph - N/A   Clear
9:04 PM 80.6 °F 84.6 °F 71.6 °F 74% 29.75 in 10.0 mi SSW 5.8 mph - N/A   Clear
9:24 PM 80.6 °F 84.6 °F 71.6 °F 74% 29.76 in 10.0 mi SSW 4.6 mph - N/A   Clear
9:44 PM 80.6 °F 84.6 °F 71.6 °F 74% 29.76 in 10.0 mi SSW 5.8 mph - N/A   Clear
10:04 PM 80.6 °F 84.6 °F 71.6 °F 74% 29.76 in 10.0 mi SSW 5.8 mph - N/A   Clear
10:24 PM 80.6 °F 84.6 °F 71.6 °F 74% 29.76 in 10.0 mi South 4.6 mph - N/A   Clear
10:44 PM 78.8 °F - 71.6 °F 78% 29.76 in 10.0 mi South 5.8 mph - N/A   Clear
11:04 PM 78.8 °F - 71.6 °F 78% 29.76 in 10.0 mi South 5.8 mph - N/A   Clear
11:24 PM 78.8 °F - 73.4 °F 83% 29.77 in 10.0 mi SSW 4.6 mph - N/A   Clear
11:44 PM 78.8 °F - 73.4 °F 83% 29.77 in 10.0 mi South 4.6 mph - N/A   Clear